www.pogodaiklimat.ru

Погода и климат >> Архив погоды >> Россия >> Якутия >> Джалинда


АРХИВ ПОГОДЫ в Джалинде

Время (UTC), дата Ветер
(напр.,м/с)
 
Видим.   Явления Облачность Т
(С)
Тd
(С)
f
(%)
Тe
(С)
Тes
(С)
Комфортность P
(гПа)
Po
(гПа)
Тmin
(С)
Tmax
(С)
R
(мм)
R24
(мм)
S
(см)
12 17.01 штиль 0 50 км ясно -36.0 -37.8 83 -36 -36 опасность
обморожения
1012.6 1003.7 -26.6
15 17.01 штиль 0 50 км ясно -38.6 -40.2 85 -39 -39 опасность
обморожения
1015.0 1005.8
18 17.01 штиль 0 50 км ясно -39.8 -41.1 87 -40 -40 опасность
обморожения
1016.6 1007.4
21 17.01 штиль 0 50 км ясно -43.6 -45.7 80 -44 -44 опасность
обморожения
1018.3 1008.9
00 18.01 штиль 0 50 км ясно -45.1 -47.2 79 -45 -45 опасность
обморожения
1019.7 1010.3 -45.1 26
03 18.01 штиль 0 50 км ясно -45.9 -48.1 78 -46 -46 опасность
обморожения
1020.3 1010.9
06 18.01 штиль 0 50 км ясно -45.6 -48.1 76 -46 -46 опасность
обморожения
1020.1 1010.7
09 18.01 штиль 0 50 км ясно -44.3 -46.4 79 -44 -44 опасность
обморожения
1020.7 1011.3
12 18.01 штиль 0 50 км ясно -44.3 -46.4 79 -44 -44 опасность
обморожения
1019.7 1010.3 -44.3
15 18.01 штиль 0 50 км ясно -42.1 -44.4 78 -42 -42 опасность
обморожения
1017.9 1008.5
18 18.01 штиль 0 50 км 3/0
[Ci fib]
-42.9 -43.8 91 -43 -43 опасность
обморожения
1016.3 1006.9
21 18.01 штиль 0 50 км 8/0
[Ci sp]
-40.6 -42.7 80 -41 -41 опасность
обморожения
1013.4 1004.3
00 19.01 штиль 0 50 км 6/0
[Ci sp]
-37.6 -39.3 84 -38 -38 опасность
обморожения
1011.4 1002.3 -42.1 26
03 19.01 Ю 1 50 км 10/0
[Cs]
-33.2 -35.0 84 -38 -38 опасность
обморожения
1009.6 1000.7
06 19.01 ЮВ 3 20 км слаб. снег 10/0
[Cs]
-32.0 -33.7 85 -42 -42 опасность
обморожения
1009.0 1000.1
09 19.01 ЮВ 3 20 км слаб. снег 10/0
[Cs]
-30.9 -33.2 80 -41 -41 опасность
обморожения
1006.8 998.1
12 19.01 штиль 0 20 км слаб. снег 10/0
[Cs]
-31.2 -33.0 84 -31 -31 опасность
обморожения
1006.0 997.3 -30.9 0.4
15 19.01 штиль 0 50 км {снег} 4/0
[Ci sp]
-32.0 -33.7 85 -32 -32 опасность
обморожения
1005.2 996.3
18 19.01 штиль 0 50 км {снег} 4/0
[Ci sp]
-32.9 -34.5 85 -33 -33 опасность
обморожения
1004.4 995.5
21 19.01 штиль 0 20 км слаб. снег 10/0
[As op]
-33.1 -34.8 85 -33 -33 опасность
обморожения
1003.5 994.7
00 20.01 штиль 0 50 км {снег} 8/0
[Ci sp]
-31.6 -33.3 85 -32 -32 опасность
обморожения
1002.6 993.8 -33.1 0.0 26
03 20.01 штиль 0 50 км 8/0
[Ci sp]
-32.0 -33.7 85 -32 -32 опасность
обморожения
1001.8 993.0
06 20.01 штиль 0 50 км 8/0
[Ci sp]
-31.8 -33.5 85 -32 -32 опасность
обморожения
1001.5 992.7
09 20.01 штиль 0 50 км 8/0
[Ci sp]
-32.2 -34.0 84 -32 -32 опасность
обморожения
1000.9 992.1
12 20.01 штиль 0 50 км 8/0
[Ci sp]
-32.2 -34.0 84 -32 -32 опасность
обморожения
1001.3 992.5 -31.6
15 20.01 штиль 0 50 км 8/0
[Ci sp]
-33.8 -35.6 84 -34 -34 опасность
обморожения
1001.4 992.6
18 20.01 штиль 0 50 км 8/0
[Ci sp]
-34.8 -36.5 84 -35 -35 опасность
обморожения
1001.5 992.7
21 20.01 штиль 0 50 км 6/0
[Ci sp]
-35.8 -38.1 79 -36 -36 опасность
обморожения
1003.0 994.2
00 21.01 штиль 0 50 км 4/0
[Ci sp]
-38.0 -40.3 79 -38 -38 опасность
обморожения
1005.3 996.2 -38.0 26
03 21.01 штиль 0 50 км 8/0
[Ci sp]
-37.9 -39.7 83 -38 -38 опасность
обморожения
1007.8 998.7
06 21.01 штиль 0 50 км 3/0
[Ci sp]
-34.7 -36.5 84 -35 -35 опасность
обморожения
1010.2 1001.3
09 21.01 штиль 0 50 км 3/0
[Ci sp]
-35.3 -37.7 79 -35 -35 опасность
обморожения
1013.2 1004.3
12 21.01 С 3 50 км 8/0
[Ci sp]
-35.6 -37.1 86 -46 -46 опасность
обморожения
1016.9 1007.9 -34.7
15 21.01 С 3 50 км 6/0
[Ci sp]
-35.1 -37.4 79 -46 -46 опасность
обморожения
1019.7 1010.7
18 21.01 С 3 50 км 6/0
[Ci sp]
-37.1 -39.5 78 -48 -48 опасность
обморожения
1020.7 1011.5
21 21.01 штиль 0 50 км 6/0
[Ci sp]
-35.8 -37.5 84 -36 -36 опасность
обморожения
1024.1 1015.0
00 22.01 штиль 0 50 км 3/0
[Ci sp]
-38.6 -40.8 80 -39 -39 опасность
обморожения
1026.0 1016.8 -38.6 26
03 22.01 штиль 0 50 км 3/0
[Ci sp]
-41.4 -43.8 77 -41 -41 опасность
обморожения
1027.1 1017.9
06 22.01 штиль 0 50 км 3/0
[Ci sp]
-42.4 -44.4 81 -42 -42 опасность
обморожения
1028.4 1019.0
09 22.01 штиль 0 50 км ясно -42.7 -45.0 78 -43 -43 опасность
обморожения
1029.3 1019.9
12 22.01 штиль 0 50 км ясно -43.6 -45.7 80 -44 -44 опасность
обморожения
1030.0 1020.6 -41.4
15 22.01 штиль 0 50 км ясно -42.5 -44.4 81 -43 -43 опасность
обморожения
1029.6 1020.2
18 22.01 штиль 0 50 км ясно -43.0 -45.0 80 -43 -43 опасность
обморожения
1028.6 1019.2
21 22.01 Ю 3 50 км ясно -41.3 -43.2 82 -53 -53 опасность
обморожения
1027.5 1018.3
00 23.01 Ю 1 50 км ясно -40.2 -42.2 81 -45 -45 опасность
обморожения
1027.4 1018.2 -43.0 26
03 23.01 Ю 1 50 км ясно -39.3 -41.7 78 -44 -44 опасность
обморожения
1026.8 1017.6
06 23.01 Ю 3 50 км ясно -39.1 -41.2 80 -51 -51 опасность
обморожения
1026.0 1016.8
09 23.01 штиль 0 50 км ясно -42.4 -44.4 81 -42 -42 опасность
обморожения
1026.9 1017.5
12 23.01 штиль 0 50 км ясно -40.6 -42.7 80 -41 -41 опасность
обморожения
1026.2 1017.0 -39.1
15 23.01 штиль 0 50 км ясно -41.7 -43.8 80 -42 -42 опасность
обморожения
1025.4 1016.0
18 23.01 штиль 0 50 км ясно -42.5 -44.4 81 -43 -43 опасность
обморожения
1024.6 1015.2
21 23.01 штиль 0 50 км ясно -42.6 -45.0 77 -43 -43 опасность
обморожения
1024.9 1015.5
00 24.01 штиль 0 50 км ясно -44.1 -46.4 78 -44 -44 опасность
обморожения
1024.4 1015.0 -44.1 26
03 24.01 штиль 0 50 км ясно -44.1 -46.4 78 -44 -44 опасность
обморожения
1024.3 1014.9
06 24.01 штиль 0 50 км ясно -43.6 -45.7 80 -44 -44 опасность
обморожения
1025.4 1016.0
09 24.01 штиль 0 50 км ясно -43.9 -45.7 82 -44 -44 опасность
обморожения
1024.9 1015.5

 

Местоположение метеостанции Джалинда (Якутия, Россия): широта 70.13 долгота 113.90 высота над уровнем моря 62 м.

В архиве по умолчанию представлена погода в Джалинде за последнюю неделю. Архивные данные за месяц целиком и за предыдущие месяцы, начиная с января 2011 года, Вы можете получить, выбрав интересующий диапазон дат из раскрывающегося списка и нажав кнопку "Ввод!".


*Определитесь, кто Вы:
робот инопланетянин человек

Внимание! Время в таблицах - всемирное. Для получения местного времени необходимо прибавить поправку, которая равна 9 ч.

Смотрите также архив погоды в соседних городах и на ближайших метеорологических станциях:

Погода в Оленеке (Якутия, Россия) (191 км)
Погода в Саскылахе (Якутия, Россия) (205 км)
Погода в Сухане (Якутия, Россия) (241 км)
Погода в Анабаре (Якутия, Россия) (344 км)
Погода на Усть-Оленеке (Якутия, Россия) (380 км)
Погода в Полярном (Якутия, Россия) (383 км)
Погода в Ярольине (Якутия, Россия) (399 км)
Погода в Тюмяти (Якутия, Россия) (400 км)
Погода в Джарджане (Якутия, Россия) (424 км)
Погода в Шелагонцах (Якутия, Россия) (432 км)

Пояснения к столбцам:

Ветер - указаны скорость ветра в м/с - средняя за 10 мин, порывы в срок и между сроками (в фигурных скобках) и направление, откуда дует ветер: С - северный, СВ - северо-восточный, В - восточный, ЮВ - юго-восточный, Ю - южный, ЮЗ - юго-западный, З - западный, СЗ - северо-западный.
Видимость - горизонтальная дальность видимости в метрах или километрах. При видимости от 1 до 10 км при отсутствии осадков обычно наблюдается дымка, при ухудшении видимости до 1 км и менее - туман. В сухую погоду видимость может ухудшаться дымом, пылью или мглою.
Явления - указаны атмосферные явления, наблюдавшиеся в срок или в последний час перед сроком; фигурными скобками обозначены явления, наблюдавшиеся между сроками (за 1-3 часа до срока); квадратными скобками обозначены град или гололедные отложения с указанием их диаметра в мм.
Облачность - указаны через наклонную черту общая и нижняя облачность в баллах и высота нижней границы облаков в метрах; квадратными скобками обозначены формы облаков: Ci - перистые, Cs - перисто-слоистые, Cc - перисто-кучевые, Ac - высококучевые, As - высокослоистые, Sc - слоисто-кучевые, Ns - слоисто-дождевые, Cu - кучевые, Cb - кучево-дождевые. Подробнее классификацию облаков см. в Атласе облаков (PDF).
T - Температура воздуха - температура, измеренная на высоте 2 м над землей.
Td - Температура точки росы - температура, при понижении до которой содержащийся в воздухе водяной пар достигнет насыщения.
f - Относительная влажность воздуха - влажноcть воздуха, измеренная на высоте 2 м над землей.
Te - Эффективная температура - температура, которую ощущает одетый по сезону человек в тени. Характеристика душности погоды. При расчете учитывается влияние влажности воздуха и скорости ветра на теплоощущения человека.
Tes - Эффективная температура на солнце - температура, которую ощущает человек, с поправкой на солнечный нагрев. Характеристика знойности погоды. Зависит от высоты солнца над горизонтом, облачности и скорости ветра. Ночью, в пасмурную погоду, а также при ветре 12 м/с и более поправка равна нулю.
P - Атмосферное давление - приведенное к уровню моря атмосферное давление.
Po - Атмосферное давление - измеренное на уровне метеостанции атмосферное давление.
Tmin - Минимальная температура - минимум температуры воздуха на высоте 2 м над землей.
Tmax - Максимальная температура - максимум температуры воздуха на высоте 2 м над землей.
R - Количество осадков - Количество выпавших осадков за период времени, мм. При наведении курсора мыши на число - период времени, за который выпало указанное количество осадков.
R24 - Количество осадков - Количество выпавших осадков за 24 часа, мм.
S - Снежный покров - Высота снежного покрова, см. При наведении курсора мыши на число - состояние снежного покрова и степень покрытия местности в баллах.